sat.trackr.live / text

‹ back to catalog

ONEWEB-0473

NORAD 51653 · 2022-012AH

PAYLOAD ACTIVE UNKNOWN

§ Identity

Operator
Country
UK
Launch date
2022-02-10
Launch site
FRGUI
Launch vehicle
Mass (kg)
RCS (m²)

Purposes: comms

External: N2YO · Heavens-Above · Gunter

§ Orbital elements

Epoch: 2026-09-20T00:20:04.715808Z

Period
109.89 min
Inclination
87.8895°
Eccentricity
0.0001710
Mean motion
13.10369975 rev/d
Perigee alt
1,220.4 km
Apogee alt
1,223.0 km
Semi-major
7,599.9 km
B*
1.2494e-3
RAAN
17.3947°
Arg perigee
99.2553°
Mean anomaly
260.8767°
Rev number
22,172

§ Raw data

ONEWEB-04731 51653U 22012AH  26263.01394347  .00000449  00000+0  12494-2 0  99952 51653  87.8895  17.3947 0001710  99.2553 260.8767 13.10369975221724

JSON: /api/v1/satellites/51653 · /tle

For live sub-satellite position, see the globe view (requires WebGL).

§ Visibility from observer

Set your observer location to see the next 7 days of passes ≥ 10°. The values pass through the URL so the page stays shareable.

No JS? Fill the form by hand. The geolocation button needs JavaScript.